Regional Weather Roundup
Issued by NWS

Home | Current Version | Previous Version | Text Only | Print | Product List | Glossary Off
Versions: 1 2 3 4 5 6 7 8 9 10 11 12 13 14 15 16 17 18 19 20 21 22 23 24 25 26 27 28 29 30 31 32 33 34 35 36 37 38 39 40 41 42 43 44 45 46 47

000
ASUS45 KBOU 211410
RWRCO

WEATHER ROUNDUP FOR COLORADO
NATIONAL WEATHER SERVICE PUEBLO CO
800 AM MDT SAT APR 21 2018

NOTE: "FAIR" INDICATES FEW OR NO CLOUDS BELOW 12000 FEET WITH NO
SIGNIFICANT WEATHER AND/OR OBSTRUCTIONS TO VISIBILITY.

COZ001>005-013-030-031-211500-
...NORTHWEST COLORADO...

CITY           SKY/WX    TMP DP  RH WIND       PRES   REMARKS
CRAIG          CLOUDY    38  33  82 SW6       30.17R
HAYDEN         CLOUDY    34  32  92 S3        30.18R
MEEKER         CLOUDY    37  33  85 CALM      30.17R
RABBIT EARS PA NOT AVBL
STEAMBOAT SPGS CLOUDY    32  32 100 CALM      30.16S
WALDEN         CLOUDY    30  27  86 N12       30.16R WCI  21
$$

COZ006>008-011-211500-
...WEST CENTRAL VALLEYS...

CITY           SKY/WX    TMP DP  RH WIND       PRES   REMARKS
GRAND JUNCTION CLOUDY    46  40  79 SE5       30.16R
MONTROSE       CLOUDY    39  36  89 SW3       30.20R
EAGLE          CLOUDY    34  33  96 SE5       30.18R WCI  30
RIFLE          CLOUDY    38  36  92 SE3       30.18R
DELTA          NOT AVBL
NUCLA          CLOUDY    37  36  93 E6        30.20R
$$

COZ017>023-064>068-211500-
...SOUTHWEST COLORADO...

CITY           SKY/WX    TMP DP  RH WIND       PRES   REMARKS
DURANGO        SUNNY     33  24  69 E6        30.09R WCI  28
CORTEZ         PTSUNNY   45  35  68 NW13      30.14R
PAGOSA SPRINGS FAIR      34  23  65 CALM      30.11R
TELLURIDE      CLOUDY    30  29  94 W15G23    30.18R FOG     WCI  19
WOLF CREEK PAS SUNNY     19  18  93 NW10G25   30.17R WCI   8
$$

COZ009-010-012-014-032>034-037-058>063-211500-
...CENTRAL COLORADO...

CITY           SKY/WX    TMP DP  RH WIND       PRES   REMARKS
ASPEN          CLOUDY    31  29  92 CALM      30.15R
BUENA VISTA    FAIR      31  28  90 CALM      30.13R
COPPER MTN     NOT AVBL
BERTHOUD PASS  CLOUDY    16   5  62 N18G25    30.13R WCI  -1
COTTONWOOD PAS PTSUNNY   32  27  80 CALM      30.12R
GUNNISON       CLOUDY    31  29  92 N7        30.15R WCI  24
KREMMLING      CLOUDY    37  30  75 CALM      30.16R
LEADVILLE      CLOUDY    25  22  88 N5        30.12R WCI  19
MONARCH PASS   PTSUNNY   18  14  86 W12       30.22R WCI   5
SALIDA         CLOUDY    33  30  89 CALM      30.20R
SUNLIGHT       SNOW     N/A N/A N/A MISG      30.22R VSB<1/4
WILKERSON PASS SNOW     N/A N/A N/A CALM      30.14R VSB 1/4
$$

COZ069>075-211500-
...SAN LUIS VALLEY/SANGRE DE CRISTO MOUNTAINS...

CITY           SKY/WX    TMP DP  RH WIND       PRES   REMARKS
ALAMOSA        MOSUNNY   35  28  75 CALM      30.10R
DEL NORTE      FAIR      29  28  95 CALM      30.11R
LA VETA PASS   LGT SNOW  27  23  86 N5G16     30.22R WCI  21
SAGUACHE       NOT AVBL
$$

COZ035-036-038>040-211500-
...NORTHERN COLORADO FRONT RANGE...

CITY           SKY/WX    TMP DP  RH WIND       PRES   REMARKS
DENVER INTL AP LGT SNOW  32  31  96 N6        30.16R VSB 3/4 WCI  26
DMNS CITY PARK NOT AVBL
AURORA         LGT SNOW  31  31 100 N7        30.17R FOG     WCI  25
FRONT RANGE AP SNOW      34  32  93 NW6       30.16R VSB 1/2 WCI  29
ERIE MUNI ARPT LGT SNOW  33  33  99 CALM      30.23S VSB 1
BOULDER MUN AP LGT SNOW  32  32 100 CALM      30.17S
CENTENNIAL     LGT SNOW  31  31 100 N7        30.16R VSB 1   WCI  24
BROOMFIELD     LGT SNOW  32  32 100 N6        30.18R VSB 1   WCI  26
LOVELAND       LGT SNOW  32  32 100 N6        30.19R VSB 3/4 WCI  26
LONGMONT       LGT SNOW  36  34  93 CALM      30.20S
$$

COZ041-046-047-076>085-087-088-211500-
...PIKES PEAK/PALMER DIVIDE AND SOUTHERN FOOTHILLS...

CITY           SKY/WX    TMP DP  RH WIND       PRES   REMARKS
COLO. SPRINGS  CLOUDY    34  29  82 N15       30.13R WCI  24
A. F. ACADEMY  FLURRIES  31  30  95 N14       30.13R WCI  21
SCHRIEVER AFB  NOT AVBL
CHEYENNE MTN   NOT AVBL
ELLICOTT       CLOUDY   N/A N/A N/A N6        30.12R
FALCON         CLOUDY    32  29  90 NW14G20   30.14R WCI  22
FORT CARSON    CLOUDY    34  30  86 N10       30.13R WCI  26
LIMON          LGT SNOW  32  32 100 CALM      30.14R FOG
MONUMENT HILL  LGT SNOW  28  28 100 NW14      30.16R WCI  17
CANON CITY     PTSUNNY   36  34  93 W6        30.12R
WALSENBURG     CLOUDY    37  36  93 N10       30.12R
TRINIDAD       CLOUDY    36  34  92 NW12      30.11R
$$

COZ042>045-048>051-090-091-211500-
...NORTHEAST COLORADO...

CITY           SKY/WX    TMP DP  RH WIND       PRES   REMARKS
GREELEY ARPT   LGT SNOW  33  32  96 N6        30.19S FOG     WCI  28
AKRON          LGT SNOW  32  32 100 E9        30.17R FOG     WCI  24
BURLINGTON     CLOUDY    36  36 100 E8        30.16R
WRAY           LGT RAIN  36  36 100 CALM      30.19S
YUMA           NOT AVBL
STERLING       NOT AVBL
HOLYOKE        RAIN      37  36  93 E5        30.20S
FORT MORGAN    LGT SNOW  32  32  99 NE6       30.18S WCI  27
$$

COZ086-089-092>099-211500-
...SOUTHEAST COLORADO...

CITY           SKY/WX    TMP DP  RH WIND       PRES   REMARKS
PUEBLO         CLOUDY    41  38  89 CALM      30.12S
LA JUNTA       CLOUDY    41  39  93 NE9       30.11R
LAMAR          CLOUDY    41  39  93 E12       30.10R FOG
SPRINGFIELD      N/A     38  38 100 NE7       30.09R
$$





USA.gov is the U.S. government's official web portal to all federal, state and local government web resources and services.